This is the latest recevied weather packets stored in our database for station/object N7WSS. If no packets are shown the sender has not sent any weather packets the latest 10 day(s).
| Time | Temp. | Humidity | Pressure | Rain* | Wind** | Luminosity | Snow |
|---|---|---|---|---|---|---|---|
| 1787776178 | 42.22° C | 21% | 1012.8 hPa | 0 mm | - | - | - |
| 1787775878 | 41.11° C | 22% | 1012.7 hPa | 0 mm | - | - | - |
| 1787775573 | 41.67° C | 22% | 1012.8 hPa | 0 mm | - | - | - |
| 1787775271 | 41.11° C | 23% | 1012.7 hPa | 0 mm | - | - | - |
| 1787774966 | 40° C | 24% | 1012.7 hPa | 0 mm | - | - | - |
| 1787774666 | 40° C | 24% | 1012.9 hPa | 0 mm | - | - | - |
| 1787774364 | 40.56° C | 22% | 1012.7 hPa | 0 mm | - | - | - |
| 1787774060 | 41.11° C | 21% | 1013.1 hPa | 0 mm | - | - | - |
| 1787773758 | 41.67° C | 21% | 1013.2 hPa | 0 mm | - | - | - |
| 1787773453 | 42.22° C | 21% | 1013.2 hPa | 0 mm | - | - | - |
| 1787773149 | 41.67° C | 21% | 1013.3 hPa | 0 mm | - | - | - |
| 1787772844 | 41.67° C | 22% | 1013.3 hPa | 0 mm | - | - | - |
| 1787772543 | 41.11° C | 21% | 1013.5 hPa | 0 mm | - | - | - |
| 1787772243 | 40.56° C | 22% | 1013.3 hPa | 0 mm | - | - | - |
| 1787771942 | 41.11° C | 21% | 1013.5 hPa | 0 mm | - | - | - |
| 1787771636 | 41.11° C | 21% | 1013.6 hPa | 0 mm | - | - | - |
| 1787771330 | 41.67° C | 21% | 1013.7 hPa | 0 mm | - | - | - |
| 1787771026 | 41.67° C | 21% | 1013.9 hPa | 0 mm | - | - | - |
| 1787770724 | 41.11° C | 21% | 1014 hPa | 0 mm | - | - | - |
| 1787770419 | 40.56° C | 21% | 1013.9 hPa | 0 mm | - | - | - |
| 1787770118 | 40.56° C | 22% | 1014 hPa | 0 mm | - | - | - |
| 1787769818 | 40.56° C | 22% | 1013.9 hPa | 0 mm | - | - | - |
| 1787769512 | 41.11° C | 22% | 1014.2 hPa | 0 mm | - | - | - |
| 1787769211 | 41.67° C | 22% | 1014.1 hPa | 0 mm | - | - | - |
| 1787768906 | 40.56° C | 21% | 1014.1 hPa | 0 mm | - | - | - |
* Rain latest hour (hover to see other rain measurements)
** Current wind speed in m/s (hover to see current wind gust speed)